Regional Weather Roundup
Issued by NWS Newport/Morehead, NC

Current Version | Previous Version | Graphics & Text | Print | Product List | Glossary Off
Versions: 1 2 3 4 5 6 7 8 9 10 11 12 13 14 15 16 17 18 19 20 21 22 23 24 25 26 27 28 29 30 31 32 33 34 35 36 37 38 39 40 41 42 43 44 45 46 47 48 49 50

000
ASUS42 KMHX 271213
RWRMHX
WEATHER ROUNDUP FOR EASTERN NORTH CAROLINA
NATIONAL WEATHER SERVICE NEWPORT/MOREHEAD CITY NC
800 AM EDT SUN MAY 27 2018

NOTE: "FAIR" INDICATES FEW OR NO CLOUDS BELOW 12,000 FEET
WITH NO SIGNIFICANT WEATHER AND/OR OBSTRUCTIONS TO VISIBILITY

NCZ015>017-031-032-045>047-102-103-271300-
NORTH COAST

CITY           SKY/WX    TMP DP  RH WIND       PRES   REMARKS
EDENTON        FAIR      76  72  86 SW8       30.02R
ELIZABETH CITY FAIR      77  73  87 SW12      30.00R
KITTY HAWK       N/A     75  71  88 SW7       30.01R
MANTEO         FAIR      76  71  85 SW14      30.03R

$$

NCZ045>047-081-094-103-104-271300-
CENTRAL COAST

CITY           SKY/WX    TMP DP  RH WIND       PRES   REMARKS
FRISCO         FAIR      77  73  87 SW6       30.05R

$$

NCZ095-097-098-100-101-271300-
SOUTHERN COAST

CITY           SKY/WX    TMP DP  RH WIND       PRES   REMARKS
BEAUFORT       FAIR      77  73  87 SW8       30.04R
CEDAR ISLAND   NOT AVBL
JACKSONVILLE   FAIR      76  74  93 S6        30.03R
PINEY ISLAND   NOT AVBL
WILMINGTON     FAIR      76  72  87 S6        30.03R


$$

NCZ011>013-027>030-043-044-078>080-089-090>093-098-271300-
COASTAL PLAIN

CITY           SKY/WX    TMP DP  RH WIND       PRES   REMARKS
AHOSKIE        PTSUNNY   73  71  95 S5        30.00S
CLINTON        CLOUDY    72  72 100 SW3       30.03S
ELIZABETHTOWN  PTSUNNY   71  70  98 S5        30.03S
GOLDSBORO      FAIR      74  71  91 S6        30.01R
GREENVILLE     FAIR      73  72  94 SW8       30.04R
HAVELOCK       SUNNY     77  75  93 S8        30.04R
KENANSVILLE    CLOUDY    73  72  94 SW3       30.04R
KINSTON        PTSUNNY   73  72  94 SW9       30.03R
NEW BERN       FAIR      74  73  97 S6        30.04R
RICHLANDS      FAIR      73  72  96 S5        30.04R
ROCKY MOUNT    PTSUNNY   74  71  91 S7        30.02R
WASHINGTON     FAIR      74  71  88 SW5       30.03R
WHITEVILLE     FAIR      72  71  98 CALM      30.03R

$$

AMZ130-135-150-152-154-156-158-170-250-252-270-ANZ085-086-088-633-658-670-271300-
MARINE OBSERVATIONS

STATION/POSITION TIME  TEMP    WIND        PRES    WAVE   SWELL
                       AIR SEA DIR/SP/G            HT/PER HT/PER
                 (UTC) (F)     (DEG/KT/KT) (MB)    (FT/S) (FT/S)
CHESAPEAKE LIGHT NOT AVBL
64 E VA BEACH    1150   73 72  220/ 14/ 16 1016.1    3/ 5   2/ 9
DUCK             1148   76 53  230/ 14/ 19 1015.9
2 E DUCK         1200      57                N/A     1/ 9
OREGON INLET     1142   76 79  220/ 16/ 18 1016.6
13E OREGON INLT  1148      69                N/A     2/ 8   2/ 8
HATTERAS CG      1148   77 77  210/  6/  9 1017.1
DIAMOND BUOY     1150   75 78  190/ 12/ 16 1017.8    3/ 5   2/ 8
CAPE LOOKOUT     1100          210/  5/  7 1017.3
BEAUFORT LAB     1148   77 78  210/  7/  9 1017.5
30 SE NEW RVR IN 1108   77 76  190/  6/ 10 1016.9
30 SE NEW RVR IN 1200      77                N/A     3/ 9
27 SE WRIGHTSVLE 1108   77 77  180/  8/ 12 1016.7
5 SE WRIGHTSVLE  1108   74 74  150/  4/  6 1016.1
225 S CAPE HAT   1150      78  160/ 14/ 17 1017.7    4/ 6   2/ 8
41 SE CHARLESTON 1150      76  110/  8/ 10 1015.8    3/ 9   3/ 9

$$



USA.gov is the U.S. government's official web portal to all federal, state and local government web resources and services.